Tracking 28920 objects as of 24-May-2024
HD Live streaming from Space Station
objects crossing your sky now

STARLINK-3888

Track STARLINK-3888 now!
10-day predictions
STARLINK-3888 is classified as:


NORAD ID: 52454
Int'l Code: 2022-049D
Perigee: 546.1 km
Apogee: 547.7 km
Inclination: 53.2 °
Period: 95.4 minutes
Semi major axis: 6917 km
RCS: Unknown
Launch date: May 6, 2022
Source: United States (US)
Launch site: AIR FORCE EASTERN TEST RANGE (AFETR)
Your satellite tracking list
Your tracking list is empty




NASA's NSSDC Master Catalog

Two Line Element Set (TLE):
1 52454U 22049D   24145.32258067  .00000719  00000-0  63249-4 0  9991
2 52454  53.2167 126.6876 0001211  97.7778 262.3352 15.08837932113488
Source of the keplerian elements: AFSPC